When you browse on this site, cookies collect data to enhance your experience and personalize the content and advertising you see.
Visit our Privacy Policy to learn more. By continuing to use the site, you agree to this use of cookies and data.

Hourly Weather Slawniow

Today, 6 July, Monday

Time Temperature Precipitation Wind Pressure Humidity
00:00 +20°C° 0 mm 3 mps 730 mmHg 87%
01:00 +19°C° 0 mm 3 mps 730 mmHg 89%
02:00 +19°C° 0 mm 3 mps 730 mmHg 89%
03:00 +19°C° 0 mm 3 mps 729 mmHg 90%
04:00 +19°C° 0 mm 3 mps 729 mmHg 91%
05:00 +20°C° 0 mm 3 mps 729 mmHg 87%
06:00 +21°C° 0 mm 3 mps 729 mmHg 83%
07:00 +22°C° 0 mm 3 mps 729 mmHg 78%
08:00 +25°C° 0 mm 3 mps 729 mmHg 73%
09:00 +26°C° 0 mm 4 mps 729 mmHg 67%
10:00 +27°C° 0 mm 4 mps 729 mmHg 61%
11:00 +27°C° 0.5 mm 5 mps 729 mmHg 64%
12:00 +27°C° 0.5 mm 5 mps 728 mmHg 67%
13:00 +26°C° 0.5 mm 6 mps 728 mmHg 69%
14:00 +23°C° 0.5 mm 6 mps 728 mmHg 70%
15:00 +21°C° 0.5 mm 5 mps 728 mmHg 71%
16:00 +19°C° 0.5 mm 5 mps 728 mmHg 72%
17:00 +18°C° 0 mm 4 mps 728 mmHg 72%
18:00 +18°C° 0 mm 4 mps 729 mmHg 73%
19:00 +17°C° 0 mm 3 mps 729 mmHg 73%
20:00 +17°C° 0 mm 3 mps 730 mmHg 72%
21:00 +15°C° 0 mm 4 mps 730 mmHg 71%
22:00 +15°C° 0 mm 4 mps 731 mmHg 71%
23:00 +14°C° 0.5 mm 4 mps 731 mmHg 77%

Tomorrow, 7 July, Tuesday

Time Temperature Precipitation Wind Pressure Humidity
00:00 +13°C° 0.5 mm 3 mps 731 mmHg 82%
01:00 +12°C° 0.5 mm 3 mps 732 mmHg 88%
02:00 +12°C° 0.3 mm 3 mps 732 mmHg 88%
03:00 +12°C° 0.3 mm 3 mps 732 mmHg 88%
04:00 +11°C° 0.3 mm 3 mps 731 mmHg 88%
05:00 +12°C° 0.1 mm 4 mps 732 mmHg 86%
06:00 +12°C° 0.1 mm 5 mps 732 mmHg 84%
07:00 +13°C° 0.1 mm 5 mps 733 mmHg 82%
08:00 +14°C° 0.1 mm 5 mps 733 mmHg 76%
09:00 +15°C° 0.1 mm 5 mps 733 mmHg 71%
10:00 +16°C° 0.1 mm 5 mps 733 mmHg 65%
11:00 +16°C° 0.3 mm 5 mps 733 mmHg 63%
12:00 +17°C° 0.3 mm 5 mps 733 mmHg 62%
13:00 +17°C° 0.3 mm 6 mps 733 mmHg 60%
14:00 +17°C° 0.1 mm 6 mps 733 mmHg 60%
15:00 +17°C° 0.1 mm 6 mps 733 mmHg 60%
16:00 +17°C° 0.1 mm 6 mps 733 mmHg 60%
17:00 +16°C° 0 mm 5 mps 733 mmHg 64%
18:00 +16°C° 0 mm 3 mps 733 mmHg 69%
19:00 +15°C° 0 mm 2 mps 733 mmHg 73%
20:00 +14°C° 0 mm 2 mps 734 mmHg 76%
21:00 +12°C° 0 mm 1 mps 734 mmHg 79%
22:00 +11°C° 0 mm 1 mps 734 mmHg 81%
23:00 +11°C° 0 mm 1 mps 734 mmHg 82%

Day after tomorrow, 8 July, Wednesday

Time Temperature Precipitation Wind Pressure Humidity
00:00 +11°C° 0 mm 1 mps 734 mmHg 83%
01:00 +10°C° 0 mm 1 mps 733 mmHg 83%
02:00 +10°C° 0 mm 1 mps 733 mmHg 83%
03:00 +9°C° 0 mm 2 mps 733 mmHg 84%
04:00 +9°C° 0 mm 2 mps 733 mmHg 84%
05:00 +11°C° 0 mm 3 mps 733 mmHg 80%
06:00 +12°C° 0 mm 3 mps 733 mmHg 76%
07:00 +14°C° 0 mm 4 mps 733 mmHg 73%
08:00 +15°C° 0 mm 4 mps 733 mmHg 68%
09:00 +17°C° 0 mm 5 mps 733 mmHg 63%
10:00 +20°C° 0 mm 5 mps 733 mmHg 58%
11:00 +19°C° 0.1 mm 5 mps 733 mmHg 61%
12:00 +19°C° 0.1 mm 4 mps 733 mmHg 64%
13:00 +19°C° 0.1 mm 4 mps 732 mmHg 67%
14:00 +17°C° 0 mm 4 mps 732 mmHg 73%
15:00 +15°C° 0 mm 4 mps 732 mmHg 78%
16:00 +14°C° 0 mm 4 mps 732 mmHg 83%
17:00 +13°C° 0.1 mm 3 mps 733 mmHg 84%
18:00 +13°C° 0.1 mm 3 mps 733 mmHg 85%
19:00 +13°C° 0.1 mm 3 mps 733 mmHg 87%
20:00 +12°C° 0 mm 3 mps 733 mmHg 89%
21:00 +12°C° 0 mm 3 mps 733 mmHg 91%
22:00 +12°C° 0 mm 3 mps 734 mmHg 93%
23:00 +12°C° 0 mm 2 mps 734 mmHg 93%

9 July, Thursday

Time Temperature Precipitation Wind Pressure Humidity
00:00 +12°C° 0 mm 2 mps 734 mmHg 94%
01:00 +12°C° 0 mm 2 mps 734 mmHg 95%
02:00 +10°C° 0 mm 2 mps 734 mmHg 95%
03:00 +10°C° 0 mm 2 mps 734 mmHg 95%
04:00 +10°C° 0 mm 2 mps 734 mmHg 96%
05:00 +12°C° 0 mm 2 mps 735 mmHg 91%
06:00 +14°C° 0 mm 2 mps 735 mmHg 86%
07:00 +16°C° 0 mm 2 mps 735 mmHg 81%
08:00 +17°C° 0 mm 2 mps 735 mmHg 74%
09:00 +18°C° 0 mm 2 mps 736 mmHg 67%
10:00 +21°C° 0 mm 1 mps 736 mmHg 60%
11:00 +21°C° 0 mm 2 mps 736 mmHg 58%
12:00 +21°C° 0 mm 2 mps 735 mmHg 56%
13:00 +23°C° 0 mm 2 mps 735 mmHg 53%
14:00 +23°C° 0 mm 2 mps 735 mmHg 53%
15:00 +24°C° 0 mm 2 mps 735 mmHg 53%
16:00 +24°C° 0 mm 2 mps 735 mmHg 52%
17:00 +23°C° 0.1 mm 2 mps 734 mmHg 60%
18:00 +21°C° 0.1 mm 2 mps 734 mmHg 68%
19:00 +19°C° 0.1 mm 2 mps 734 mmHg 76%
20:00 +18°C° 0 mm 2 mps 734 mmHg 79%
21:00 +17°C° 0 mm 2 mps 734 mmHg 81%
22:00 +16°C° 0 mm 2 mps 734 mmHg 84%
23:00 +16°C° 0 mm 2 mps 734 mmHg 85%

10 July, Friday

Time Temperature Precipitation Wind Pressure Humidity
00:00 +16°C° 0 mm 2 mps 734 mmHg 87%
01:00 +15°C° 0 mm 2 mps 734 mmHg 88%
02:00 +15°C° 0 mm 2 mps 733 mmHg 89%
03:00 +15°C° 0 mm 2 mps 733 mmHg 89%
04:00 +15°C° 0 mm 2 mps 733 mmHg 89%
05:00 +17°C° 0 mm 2 mps 733 mmHg 84%
06:00 +19°C° 0 mm 2 mps 733 mmHg 79%
07:00 +21°C° 0 mm 2 mps 733 mmHg 74%
08:00 +22°C° 0 mm 3 mps 733 mmHg 69%
09:00 +25°C° 0 mm 3 mps 733 mmHg 64%
10:00 +26°C° 0 mm 4 mps 733 mmHg 59%
11:00 +27°C° 0 mm 4 mps 732 mmHg 56%
12:00 +28°C° 0 mm 5 mps 732 mmHg 53%
13:00 +29°C° 0 mm 5 mps 732 mmHg 50%
14:00 +29°C° 0 mm 5 mps 731 mmHg 52%
15:00 +29°C° 0 mm 5 mps 731 mmHg 53%
16:00 +29°C° 0 mm 4 mps 731 mmHg 55%
17:00 +27°C° 0 mm 4 mps 731 mmHg 59%
18:00 +26°C° 0 mm 3 mps 730 mmHg 63%
19:00 +24°C° 0 mm 3 mps 730 mmHg 67%
20:00 +22°C° 0 mm 3 mps 730 mmHg 69%
21:00 +21°C° 0 mm 3 mps 730 mmHg 71%
22:00 +20°C° 0 mm 2 mps 730 mmHg 73%
23:00 +20°C° 0.4 mm 2 mps 730 mmHg 77%

11 July, Saturday

Time Temperature Precipitation Wind Pressure Humidity
00:00 +19°C° 0.4 mm 2 mps 730 mmHg 80%
01:00 +18°C° 0.4 mm 2 mps 730 mmHg 84%
02:00 +18°C° 0.9 mm 2 mps 730 mmHg 88%
03:00 +18°C° 0.9 mm 2 mps 730 mmHg 92%
04:00 +18°C° 0.9 mm 2 mps 731 mmHg 95%
05:00 +18°C° 0.4 mm 2 mps 731 mmHg 94%
06:00 +18°C° 0.4 mm 3 mps 731 mmHg 93%
07:00 +18°C° 0.4 mm 4 mps 732 mmHg 92%
08:00 +15°C° 0.8 mm 5 mps 732 mmHg 92%
09:00 +14°C° 0.8 mm 5 mps 733 mmHg 92%
10:00 +13°C° 0.8 mm 6 mps 733 mmHg 93%
11:00 +12°C° 2.2 mm 5 mps 733 mmHg 93%
12:00 +10°C° 2.2 mm 5 mps 734 mmHg 92%
13:00 +11°C° 2.2 mm 4 mps 734 mmHg 92%
14:00 +12°C° 0.6 mm 3 mps 734 mmHg 88%
15:00 +12°C° 0.6 mm 3 mps 735 mmHg 84%
16:00 +13°C° 0.6 mm 3 mps 735 mmHg 80%
17:00 +14°C° 0 mm 2 mps 736 mmHg 81%
18:00 +14°C° 0 mm 2 mps 736 mmHg 82%
19:00 +14°C° 0 mm 1 mps 736 mmHg 83%
20:00 +13°C° 0 mm 2 mps 736 mmHg 85%
21:00 +12°C° 0 mm 2 mps 736 mmHg 87%
22:00 +10°C° 0 mm 2 mps 737 mmHg 88%
23:00 +10°C° 0 mm 3 mps 737 mmHg 89%
Show more